Tracking 30990 objects as of 8-Jul-2025
HD Live streaming from Space Station
objects crossing your sky now

FENGYUN 1C DEB

Track FENGYUN 1C DEB now!
10-day predictions


NORAD ID: 31955
Int'l Code: 1999-025CNG
Perigee: 665.9 km
Apogee: 730.9 km
Inclination: 99.3 °
Period: 98.6 minutes
Semi major axis: 7069 km
RCS: 0.0141 m2 (small)
Launch date: May 10, 1999
Source: People's Republic of China (PRC)
Launch site: Taiyaun Space Center, China (TSC)

Note: This is SATELLITE DEBRIS
Your satellite tracking list
Your tracking list is empty




NASA's NSSDC Master Catalog

Two Line Element Set (TLE):
1 31955U 99025CNG 25187.54483008  .00005042  00000-0  10336-2 0  9999
2 31955  99.2968  44.7847 0045998 305.8673  84.0759 14.60590812942317
Source of the keplerian elements: AFSPC